Regional Weather Roundup
Issued by NWS

Home | Current Version | Previous Version | Graphics & Text | Print | Product List | Glossary On
Versions: 1 2 3 4 5 6 7 8 9 10 11 12 13 14 15 16 17 18 19 20 21 22 23 24 25 26 27 28 29 30 31 32 33 34 35 36 37 38 39 40 41 42 43 44 45 46 47 48 49 50
000
ASUS43 KOAX 231102
RWRNE

WEATHER ROUNDUP FOR NEBRASKA
NATIONAL WEATHER SERVICE OMAHA NE
600 AM CDT SUN JUL 23 2017

NOTES: SATELLITE DATA IS BEING USED TO AUGMENT CLOUD COVER ABOVE
       12000 FEET.
       "FAIR" INDICATES FEW OR NO CLOUDS BELOW 12,000 FEET WITH NO
       SIGNIFICANT WEATHER AND/OR OBSTRUCTIONS TO VISIBILITY.


NEZ001>004-019>022-054>056-231200-
NEBRASKA PANHANDLE

CITY           SKY/WX    TMP DP  RH WIND       PRES   REMARKS
SCOTTSBLUFF    CLEAR     61  52  72 NE6       30.11S
ALLIANCE       CLEAR     57  49  74 NE3       30.11R
CHADRON        CLEAR     56  52  86 CALM      30.09R
GORDON         FAIR      57  51  80 CALM      30.11S
SIDNEY         CLEAR     57  50  77 W9        30.15S
$$

NEZ057>060-069>072-079>082-231200-
SOUTHWEST NEBRASKA

CITY           SKY/WX    TMP DP  RH WIND       PRES   REMARKS
NORTH PLATTE   CLEAR     55  52  89 CALM      30.05S
IMPERIAL       CLEAR     61  54  77 W3        30.08S
LEXINGTON      CLEAR     62  60  93 W5        30.03R FOG
MCCOOK         CLEAR     58  56  93 W3        30.04S
OGALLALA       CLEAR     55  52  89 W5        30.08F
$$

NEZ005>010-023>029-035>040-094-231200-
NORTH CENTRAL NEBRASKA

CITY           SKY/WX    TMP DP  RH WIND       PRES   REMARKS
VALENTINE      CLEAR     58  45  62 W3        30.07R
AINSWORTH      CLEAR     63  56  78 NW3       30.06R
BROKEN BOW     CLEAR     61  58  90 N6        30.03R
O`NEILL        CLEAR     64  60  85 N3        30.00R
ORD            PTCLDY    60  58  92 CALM      29.98  FOG
THEDFORD       CLEAR     59  51  74 W7        30.07S
$$

NEZ041-046>049-061>064-073>077-083>087-231200-
SOUTH CENTRAL NEBRASKA

CITY           SKY/WX    TMP DP  RH WIND       PRES   REMARKS
GRAND ISLAND   CLEAR     64  64 100 W3        29.98R FOG
AURORA         CLEAR     64  64 100 CALM      29.97R FOG
HASTINGS       CLEAR     67  64  90 W5        30.00R
HEBRON         MOCLDY    69  66  92 CALM      29.98R
HOLDREGE       CLEAR     65  64  96 CALM      30.02R FOG
KEARNEY        CLEAR     66  64  93 W5        30.00R
YORK           CLEAR     64  64 100 CALM      29.97R
$$

NEZ011>018-030>034-042>045-231200-
NORTHEAST NEBRASKA

CITY           SKY/WX    TMP DP  RH WIND       PRES   REMARKS
NORFOLK        FOG       57  56  96 W3        29.97R VSB 1/2
ALBION         CLEAR     59  58  97 N5        29.99R
BLAIR          RAIN      68  67  97 CALM      29.94R VSB 3/4
COLUMBUS       CLEAR     61  60  97 CALM      29.96S
FREMONT        CLEAR     63  62  97 CALM      29.95R
TEKAMAH        FOG       64  63  96 N5        29.93S VSB 1
WAYNE          FOG       60  59  99 CALM      29.96S VSB 1/2
$$

NEZ050>053-065>068-078-088>093-231200-
SOUTHEAST NEBRASKA

CITY           SKY/WX    TMP DP  RH WIND       PRES   REMARKS
LINCOLN        CLEAR     66  65  96 N5        29.95R
OMAHA EPPLEY   FOG       70  67  90 N5        29.94R VSB 1/4
BEATRICE       CLEAR     71  70  96 S6        29.96R
FALLS CITY     CLOUDY    71  68  90 S8        29.92R
NEBRASKA CITY    N/A     71  71 100 CALM      29.93R FOG
PLATTSMOUTH    FOG       67  66  96 NW3       29.94R VSB 1/4
$$

NEZ044-045-051>053-067-231200-
OMAHA AREA

CITY           SKY/WX    TMP DP  RH WIND       PRES   REMARKS
OMAHA EPPLEY   FOG       70  67  90 N5        29.94R VSB 1/4
BLAIR          RAIN      68  67  97 CALM      29.94R VSB 3/4
FREMONT        CLEAR     63  62  97 CALM      29.95R
MILLARD        CLEAR     72  71  95 CALM      29.94R
OFFUTT AFB     CLEAR     67  66  98 NW3       29.93R
PLATTSMOUTH    FOG       67  66  96 NW3       29.94R VSB 1/4
WAHOO          FAIR      64  63  97 N6        29.95R FOG
$$




USA.gov is the U.S. government's official web portal to all federal, state and local government web resources and services.